Location: Elaina
(34.1445°N, 106.7742°W)
Time: 06:39:09
(UTC+00:00)

SL-24 R/B - Pass Details

Date: 11 December 2025
Orbit: 501 x 978 km, 97.4° (Epoch: 13 January)

Event Time Altitude Azimuth Distance (km) Brightness Sun altitude
Rises 12:08:01 0° 12° (NNE) 3,286 7.8 -23.1°
Reaches altitude 10° 12:10:30 10° 13° (NNE) 2,276 6.9 -22.6°
Maximum altitude 12:15:29 84° 100° (E) 685 4.2 -21.6°
Drops below altitude 10° 12:19:47 10° 190° (S) 1,969 6.7 -20.7°
Sets 12:21:48 0° 191° (S) 2,808 7.5 -20.3°
